| time (UTC) | temp F | wind direction | speed MPH | gust MPH | rain 1hr in | rain 24hr in | rain mn in | humidity % | barometer mb |
| 20260506184535 | 68 | 258 | 9.0 | 23.0 | 0.00 | 0.00 | 0.00 | 57 | 1018.8 |
| 20260506183029 | 68 | 255 | 7.0 | 18.0 | 0.00 | 0.00 | 0.00 | 59 | 1019.0 |
| 20260506181534 | 68 | 258 | 6.0 | 15.0 | 0.00 | 0.00 | 0.00 | 59 | 1019.4 |
| 20260506180035 | 68 | 257 | 5.0 | 16.0 | 0.00 | 0.00 | 0.00 | 60 | 1019.5 |
| 20260506174528 | 68 | 259 | 4.0 | 18.0 | 0.00 | 0.00 | 0.00 | 59 | 1019.5 |
| 20260506173032 | 68 | 256 | 4.0 | 15.0 | 0.00 | 0.00 | 0.00 | 60 | 1019.4 |
| 20260506171532 | 67 | 287 | 5.0 | 13.0 | 0.00 | 0.00 | 0.00 | 62 | 1019.1 |
| 20260506170143 | 67 | 275 | 4.0 | 12.0 | 0.00 | 0.00 | 0.00 | 63 | 1019.0 |
| 20260506161534 | 65 | 251 | 4.0 | 15.0 | 0.00 | 0.00 | 0.00 | 66 | 1020.0 |
| 20260506160030 | 65 | 253 | 5.0 | 14.0 | 0.00 | 0.00 | 0.00 | 67 | 1020.0 |
| 20260506154530 | 64 | 256 | 5.0 | 15.0 | 0.00 | 0.00 | 0.00 | 66 | 1019.9 |
| 20260506153111 | 64 | 265 | 4.0 | 21.0 | 0.00 | 0.00 | 0.00 | 66 | 1019.6 |
| 20260506151535 | 64 | 246 | 3.0 | 10.0 | 0.00 | 0.00 | 0.00 | 67 | 1019.5 |
| 20260506150030 | 63 | 236 | 4.0 | 10.0 | 0.00 | 0.00 | 0.00 | 69 | 1019.5 |
| 20260506144529 | 62 | 257 | 2.0 | 8.0 | 0.00 | 0.00 | 0.00 | 71 | 1019.3 |
| 20260506143029 | 61 | 253 | 2.0 | 5.0 | 0.00 | 0.00 | 0.00 | 72 | 1019.2 |
| 20260506141533 | 59 | 252 | 2.0 | 8.0 | 0.00 | 0.00 | 0.00 | 75 | 1019.3 |
| 20260506140037 | 57 | 247 | 2.0 | 9.0 | 0.00 | 0.00 | 0.00 | 76 | 1019.2 |
| 20260506134530 | 57 | 237 | 3.0 | 13.0 | 0.00 | 0.00 | 0.00 | 77 | 1019.1 |
| 20260506131534 | 58 | 251 | 2.0 | 7.0 | 0.00 | 0.00 | 0.00 | 76 | 1018.9 |
| 20260506130030 | 57 | 246 | 4.0 | 16.0 | 0.00 | 0.00 | 0.00 | 77 | 1018.8 |
| 20260506124607 | 57 | 242 | 2.0 | 9.0 | 0.00 | 0.00 | 0.00 | 77 | 1018.6 |
| 20260506123111 | 57 | 252 | 2.0 | 13.0 | 0.00 | 0.00 | 0.00 | 76 | 1018.3 |
| 20260506120034 | 57 | 261 | 1.0 | 10.0 | 0.00 | 0.00 | 0.00 | 76 | 1018.3 |
| 20260506113031 | 57 | 289 | 1.0 | 8.0 | 0.00 | 0.00 | 0.00 | 76 | 1018.0 |
| 20260506111534 | 57 | 316 | 1.0 | 7.0 | 0.00 | 0.00 | 0.00 | 76 | 1017.8 |
| 20260506110034 | 57 | 333 | 1.0 | 12.0 | 0.00 | 0.00 | 0.00 | 76 | 1017.7 |
| 20260506104536 | 58 | 305 | 0.0 | 5.0 | 0.00 | 0.00 | 0.00 | 76 | 1017.5 |
| 20260506103153 | 58 | 275 | 2.0 | 10.0 | 0.00 | 0.00 | 0.00 | 76 | 1017.4 |
| 20260506101531 | 58 | 255 | 2.0 | 8.0 | 0.00 | 0.00 | 0.00 | 76 | 1017.4 |
| 20260506100048 | 58 | 241 | 3.0 | 11.0 | 0.00 | 0.00 | 0.00 | 75 | 1017.4 |
| 20260506094607 | 58 | 246 | 3.0 | 12.0 | 0.00 | 0.00 | 0.00 | 75 | 1017.3 |
| 20260506093031 | 59 | 252 | 3.0 | 13.0 | 0.00 | 0.00 | 0.00 | 75 | 1017.2 |
| 20260506091536 | 59 | 269 | 3.0 | 12.0 | 0.00 | 0.00 | 0.00 | 75 | 1017.1 |
| 20260506090037 | 59 | 259 | 3.0 | 9.0 | 0.00 | 0.00 | 0.00 | 75 | 1017.1 |
| 20260506084536 | 59 | 246 | 4.0 | 11.0 | 0.00 | 0.00 | 0.00 | 76 | 1017.0 |
| 20260506083035 | 58 | 244 | 3.0 | 12.0 | 0.00 | 0.00 | 0.00 | 76 | 1016.9 |
| 20260506081535 | 59 | 245 | 2.0 | 8.0 | 0.00 | 0.00 | 0.00 | 75 | 1016.8 |
| 20260506073038 | 59 | 232 | 3.0 | 11.0 | 0.00 | 0.00 | 0.00 | 75 | 1016.6 |
| 20260506070110 | 59 | 258 | 3.0 | 13.0 | 0.00 | 0.00 | 0.00 | 76 | 1016.3 |
| 20260506061532 | 60 | 238 | 5.0 | 15.0 | 0.00 | 0.00 | 0.00 | 75 | 1016.1 |
| 20260506044535 | 60 | 289 | 1.0 | 5.0 | 0.00 | 0.00 | 0.00 | 72 | 1015.4 |
| 20260506043029 | 61 | 277 | 2.0 | 11.0 | 0.00 | 0.00 | 0.00 | 71 | 1015.3 |
| 20260506041530 | 61 | 267 | 2.0 | 8.0 | 0.00 | 0.00 | 0.00 | 70 | 1015.1 |
| 20260506040041 | 62 | 259 | 1.0 | 7.0 | 0.00 | 0.00 | 0.00 | 70 | 1014.9 |
| 20260506034532 | 62 | 255 | 2.0 | 11.0 | 0.00 | 0.00 | 0.00 | 69 | 1014.5 |
| 20260506033035 | 62 | 257 | 2.0 | 9.0 | 0.00 | 0.00 | 0.00 | 68 | 1014.3 |
| 20260506024536 | 65 | 248 | 3.0 | 13.0 | 0.00 | 0.00 | 0.00 | 64 | 1013.7 |
| 20260506023034 | 66 | 250 | 3.0 | 10.0 | 0.00 | 0.00 | 0.00 | 62 | 1013.6 |
| 20260506021644 | 67 | 254 | 2.0 | 7.0 | 0.00 | 0.00 | 0.00 | 61 | 1013.6 |
| 20260506020031 | 68 | 277 | 2.0 | 8.0 | 0.00 | 0.00 | 0.00 | 59 | 1013.6 |
| 20260506013034 | 70 | 239 | 1.0 | 5.0 | 0.00 | 0.00 | 0.00 | 55 | 1013.4 |
| 20260506011532 | 72 | 250 | 2.0 | 8.0 | 0.00 | 0.00 | 0.00 | 52 | 1013.3 |
| 20260506010034 | 73 | 249 | 2.0 | 9.0 | 0.00 | 0.00 | 0.00 | 52 | 1013.3 |
| 20260506004535 | 74 | 247 | 4.0 | 10.0 | 0.00 | 0.00 | 0.00 | 51 | 1013.3 |
| 20260506003030 | 75 | 251 | 3.0 | 10.0 | 0.00 | 0.00 | 0.00 | 50 | 1013.2 |
| 20260506001538 | 76 | 253 | 3.0 | 9.0 | 0.00 | 0.00 | 0.00 | 49 | 1013.2 |
| 20260506000032 | 77 | 255 | 3.0 | 8.0 | 0.00 | 0.00 | 0.00 | 49 | 1013.4 |
| 20260505234535 | 76 | 241 | 2.0 | 8.0 | 0.00 | 0.00 | 0.00 | 51 | 1013.4 |
| 20260505231536 | 76 | 278 | 2.0 | 9.0 | 0.00 | 0.00 | 0.00 | 50 | 1013.6 |
| 20260505230030 | 76 | 278 | 2.0 | 7.0 | 0.00 | 0.00 | 0.00 | 50 | 1013.7 |
| 20260505224532 | 76 | 267 | 2.0 | 7.0 | 0.00 | 0.00 | 0.00 | 50 | 1013.8 |
| 20260505223143 | 77 | 294 | 2.0 | 9.0 | 0.00 | 0.00 | 0.00 | 49 | 1013.9 |
| 20260505221532 | 78 | 238 | 2.0 | 7.0 | 0.00 | 0.00 | 0.00 | 49 | 1014.1 |
| 20260505214534 | 75 | 283 | 3.0 | 11.0 | 0.00 | 0.00 | 0.00 | 52 | 1014.3 |
| 20260505211531 | 75 | 283 | 3.0 | 9.0 | 0.00 | 0.00 | 0.00 | 51 | 1014.5 |
| 20260505210044 | 74 | 273 | 2.0 | 9.0 | 0.00 | 0.00 | 0.00 | 52 | 1014.7 |
| 20260505210036 | 74 | 270 | 3.0 | 12.0 | 0.00 | 0.00 | 0.00 | 51 | 1014.8 |
| 20260505203034 | 73 | 268 | 2.0 | 8.0 | 0.00 | 0.00 | 0.00 | 52 | 1014.9 |
| 20260505201534 | 73 | 267 | 3.0 | 12.0 | 0.00 | 0.00 | 0.00 | 52 | 1015.0 |
| 20260505200028 | 73 | 263 | 3.0 | 10.0 | 0.00 | 0.00 | 0.00 | 54 | 1015.0 |
| 20260505194531 | 72 | 274 | 3.0 | 13.0 | 0.00 | 0.00 | 0.00 | 54 | 1015.2 |
| 20260505193035 | 72 | 261 | 3.0 | 11.0 | 0.00 | 0.00 | 0.00 | 54 | 1015.3 |
| 20260505190034 | 71 | 258 | 3.0 | 7.0 | 0.00 | 0.00 | 0.00 | 56 | 1015.4 |